Weather observations for the past three days for
Salida - Monarch Pass
Imperial (Metric)
Date Time (mdt) Wind (mph) Vis. (mi.) Weather Sky Cond. Temperature (ºF) Relative Humidity Wind Chill (°F) Heat Index (°F) Pressure Precipitation (in)
Air Dwpt 6 hour altimeter (in) sea level (mb) 1 hr 3 hr 6 hr
Max. Min.
24 19:35 W 26 10.00 Fair and Windy CLR 62.6 33.8 34% 30.7 0.0
24 19:15 W 25 G 30 10.00 Partly Cloudy and Breezy SCT065 62.6 33.8 34% 30.7 0.0
24 18:55 W 20 10.00 Mostly Cloudy BKN075 BKN095 BKN110 64.4 33.8 32% 30.7 0.0
24 18:35 NW 16 G 22 10.00 Overcast SCT060 BKN090 OVC110 64.4 33.8 32% 30.7 0.0
24 18:15 W 20 G 25 10.00 Mostly Cloudy SCT080 BKN110 62.6 33.8 34% 30.69 0.0
24 17:55 NW 13 G 21 10.00 Partly Cloudy SCT110 62.6 33.8 34% 30.69 0.0
24 17:35 NW 16 G 24 10.00 Partly Cloudy SCT060 SCT110 64.4 33.8 32% 30.7 0.0
24 17:15 Calm 10.00 Overcast BKN060 OVC090 60.8 35.6 39% 30.71 0.0
24 16:55 E 8 10.00 Mostly Cloudy BKN060 BKN080 BKN100 60.8 35.6 39% 30.71 0.0
24 16:35 E 7 10.00 Overcast OVC060 62.6 35.6 37% 30.72 0.0
24 16:15 N 5 G 9 10.00 Mostly Cloudy SCT060 BKN080 BKN090 64.4 35.6 34% 30.72 0.0
24 15:55 W 7 G 23 10.00 Partly Cloudy SCT055 SCT070 SCT100 66.2 33.8 30% 30.72 0.0
24 15:35 NW 9 G 20 10.00 Partly Cloudy SCT055 SCT070 66.2 35.6 32% 30.73 0.0
24 15:15 NW 23 G 30 10.00 Fair and Breezy CLR 64.4 35.6 34% 30.73 0.0
24 14:55 W 10 G 20 10.00 Partly Cloudy SCT065 62.6 35.6 37% 30.74 0.0
24 14:35 W 16 G 22 10.00 Partly Cloudy SCT060 SCT075 62.6 35.6 37% 30.74 0.0
24 14:15 NW 17 G 25 10.00 Fair CLR 62.6 35.6 37% 30.74 0.0
24 13:55 NW 15 10.00 Fair CLR 62.6 37.4 39% 30.74 0.0
24 13:35 NW 12 G 23 10.00 Fair CLR 62.6 37.4 39% 30.75 0.0
24 13:15 W 17 G 24 10.00 Fair CLR 62.6 39.2 42% 30.76 0.0
24 12:55 W 13 G 22 10.00 Fair CLR 60.8 39.2 45% 30.76 0.0
24 12:35 W 14 G 24 10.00 Fair CLR 59 37.4 45% 30.77 0.0
24 12:15 W 14 G 24 10.00 Fair CLR 59 39.2 48% 30.77 0.0
24 11:55 W 13 G 24 10.00 Partly Cloudy SCT090 59 39.2 48% 30.77 0.0
24 11:35 W 18 G 22 10.00 Mostly Cloudy BKN090 55.4 39.2 55% 30.77 0.0
24 11:15 W 13 G 20 10.00 Overcast OVC090 53.6 37.4 54% 30.77 0.0
24 10:55 W 15 10.00 Overcast OVC090 53.6 37.4 54% 30.77 0.0
24 10:35 W 13 G 17 10.00 Partly Cloudy SCT090 55.4 35.6 47% 30.77 0.0
24 10:15 W 8 10.00 Partly Cloudy SCT090 53.6 35.6 51% 30.77 0.0
24 09:55 NW 10 10.00 Fair CLR 53.6 35.6 51% 30.77 0.0
24 09:35 W 10 10.00 Fair CLR 51.8 35.6 54% 30.77 0.0
24 09:15 W 15 10.00 Fair CLR 51.8 35.6 54% 30.77 0.0
24 08:55 W 14 10.00 Fair CLR 50 33.8 54% 45 30.77 0.0
24 08:35 NW 15 10.00 Fair CLR 50 33.8 54% 45 30.76 0.0
24 08:15 W 8 10.00 Fair CLR 48.2 33.8 58% 45 30.76 0.0
24 07:55 NW 18 10.00 Fair CLR 50 33.8 54% 44 30.75 0.0
24 07:35 NW 17 10.00 Fair CLR 46.4 33.8 62% 40 30.75 0.0
24 07:15 NW 22 10.00 Fair and Breezy CLR 46.4 33.8 62% 39 30.74 0.0
24 06:55 NW 23 10.00 Fair and Breezy CLR 46.4 33.8 62% 39 30.74 0.0
24 06:35 W 18 10.00 Fair CLR 44.6 35.6 71% 37 30.74 0.0
24 06:15 W 20 10.00 Fair CLR 44.6 33.8 66% 37 30.74 0.0
24 05:55 W 20 10.00 Fair CLR 44.6 33.8 66% 37 30.73 0.0
24 05:35 W 20 10.00 Fair CLR 46.4 33.8 62% 40 30.73 0.0
24 05:15 W 23 10.00 Fair and Breezy CLR 46.4 33.8 62% 39 30.72 0.0
24 04:55 NW 22 10.00 Fair and Breezy CLR 46.4 32 57% 39 30.72 0.0
24 04:35 NW 21 10.00 Fair and Breezy CLR 46.4 33.8 62% 39 30.72 0.0
24 04:15 NW 22 10.00 Fair and Breezy CLR 46.4 33.8 62% 39 30.72 0.0
24 03:55 W 21 10.00 Fair and Breezy CLR 46.4 33.8 62% 39 30.72 0.0
24 03:35 NW 21 10.00 Fair and Breezy CLR 46.4 33.8 62% 39 30.73 0.0
24 03:15 NW 20 10.00 Fair CLR 46.4 33.8 62% 40 30.73 0.0
24 02:55 NW 23 10.00 Fair and Breezy CLR 46.4 33.8 62% 39 30.74 0.0
24 02:35 NW 23 10.00 Fair and Breezy CLR 46.4 33.8 62% 39 30.74 0.0
24 02:15 W 23 10.00 Fair and Breezy CLR 48.2 33.8 58% 41 30.74 0.0
24 01:55 W 23 10.00 Fair and Breezy CLR 48.2 33.8 58% 41 30.74 0.0
24 01:35 W 25 10.00 Fair and Breezy CLR 48.2 33.8 58% 41 30.75 0.0
24 01:15 W 23 10.00 Fair and Breezy CLR 48.2 33.8 58% 41 30.75 0.0
24 00:55 NW 21 10.00 Fair and Breezy CLR 50 33.8 54% 44 30.76 0.0
24 00:35 W 20 10.00 Fair CLR 50 33.8 54% 44 30.76 0.0
24 00:15 W 21 10.00 Fair and Breezy CLR 50 33.8 54% 44 30.77 0.0
23 23:55 W 20 10.00 Fair CLR 50 33.8 54% 44 30.77 0.0
23 23:35 W 18 10.00 Fair CLR 50 33.8 54% 44 30.77 0.0
23 23:15 W 17 10.00 Fair CLR 50 33.8 54% 45 30.77 0.0
23 22:55 W 16 10.00 Fair CLR 50 33.8 54% 45 30.77 0.0
23 22:35 SW 12 10.00 Fair CLR 51.8 33.8 50% 30.77 0.0
23 22:15 W 9 10.00 Fair CLR 51.8 33.8 50% 30.77 0.0
23 21:55 N 5 10.00 Fair CLR 53.6 33.8 47% 30.77 0.0
23 21:35 W 8 10.00 Fair CLR 53.6 35.6 51% 30.76 0.0
23 21:15 W 14 10.00 Fair CLR 53.6 35.6 51% 30.75 0.0
23 20:55 NW 16 10.00 Fair CLR 53.6 35.6 51% 30.74 0.0
23 20:35 W 17 10.00 Fair CLR 55.4 35.6 47% 30.74 0.0
23 20:15 NW 16 10.00 Partly Cloudy SCT100 57.2 33.8 41% 30.74 0.0
23 19:55 NW 14 10.00 Mostly Cloudy BKN100 BKN120 59 32 36% 30.74 0.0
23 19:35 W 9 10.00 Partly Cloudy SCT110 59 32 36% 30.74 0.0
23 19:15 W 7 10.00 Fair CLR 59 32 36% 30.74 0.0
23 18:35 NW 9 10.00 Fair CLR 60.8 32 34% 30.74 0.0
23 17:55 NE 9 10.00 Fair CLR 60.8 32 34% 30.75 0.0
23 17:35 NE 12 G 16 10.00 Partly Cloudy SCT070 SCT095 60.8 32 34% 30.76 0.0
23 17:15 NE 12 G 16 10.00 Mostly Cloudy SCT070 BKN095 60.8 32 34% 30.76 0.0
23 16:55 W 14 G 21 10.00 Mostly Cloudy BKN095 60.8 32 34% 30.77 0.0
23 16:35 W 13 10.00 Overcast OVC095 60.8 30.2 31% 30.77 0.0
23 16:15 NW 16 10.00 Mostly Cloudy BKN095 60.8 28.4 29% 30.77 0.0
23 15:55 W 18 G 23 10.00 Partly Cloudy SCT070 SCT095 62.6 32 32% 30.77 0.0
23 15:35 W 14 G 24 10.00 Mostly Cloudy SCT060 BKN080 BKN090 62.6 32 32% 30.77 0.0
23 15:15 NW 10 G 20 10.00 Mostly Cloudy SCT060 BKN090 64.4 33.8 32% 30.78 0.0
23 14:55 W 13 G 22 10.00 Mostly Cloudy BKN060 BKN080 62.6 33.8 34% 30.78 0.0
23 14:35 SW 15 10.00 Mostly Cloudy BKN060 BKN070 62.6 33.8 34% 30.79 0.0
23 14:15 SW 18 10.00 Partly Cloudy SCT050 SCT060 60.8 33.8 36% 30.79 0.0
23 13:55 W 15 G 21 10.00 Partly Cloudy SCT048 60.8 37.4 42% 30.8 0.0
23 13:35 W 15 G 20 10.00 Partly Cloudy SCT046 62.6 37.4 39% 30.81 0.0
23 13:15 W 16 G 23 10.00 Partly Cloudy SCT048 60.8 37.4 42% 30.81 0.0
23 12:55 W 16 G 23 10.00 Mostly Cloudy BKN046 BKN055 59 37.4 45% 30.81 0.0
23 12:36 W 12 10.00 Partly Cloudy SCT047 SCT055 59 37.4 45% 30.82 0.0
23 12:15 W 12 G 23 10.00 Fair CLR 59 37.4 45% 30.82 0.0
23 11:55 W 15 G 20 10.00 Fair CLR 57.2 35.6 44% 30.82 0.0
23 11:35 W 14 G 21 10.00 Fair CLR 57.2 37.4 48% 30.82 0.0
23 11:15 W 15 G 22 10.00 Fair CLR 55.4 37.4 51% 30.82 0.0
23 10:55 W 15 G 18 10.00 Fair CLR 53.6 35.6 51% 30.82 0.0
23 10:35 W 9 10.00 Fair CLR 53.6 35.6 51% 30.83 0.0
23 10:15 W 8 10.00 Fair CLR 53.6 35.6 51% 30.83 0.0
23 09:55 NW 6 10.00 Fair CLR 53.6 33.8 47% 30.83 0.0
23 09:35 NW 5 10.00 Fair CLR 51.8 35.6 54% 30.83 0.0
23 09:15 W 6 10.00 Fair CLR 51.8 33.8 50% 30.83 0.0
23 08:55 NW 6 10.00 Fair CLR 50 33.8 54% 48 30.83 0.0
23 08:35 NW 9 10.00 Fair CLR 50 33.8 54% 47 30.82 0.0
23 08:15 NW 7 10.00 Fair CLR 48.2 32 54% 46 30.82 0.0
23 07:55 W 8 10.00 Fair CLR 46.4 32 57% 43 30.82 0.0
23 07:35 NW 10 10.00 Fair CLR 46.4 32 57% 42 30.81 0.0
23 07:15 NW 10 10.00 Fair CLR 46.4 32 57% 42 30.81 0.0
23 06:55 NW 13 10.00 Fair CLR 46.4 32 57% 41 30.81 0.0
23 06:35 NW 14 10.00 Fair CLR 44.6 32 61% 39 30.8 0.0
23 06:15 NW 17 10.00 Fair CLR 44.6 32 61% 38 30.79 0.0
23 05:55 NW 21 10.00 Fair and Breezy CLR 44.6 32 61% 37 30.79 0.0
23 05:35 NW 20 10.00 Fair CLR 44.6 32 61% 37 30.79 0.0
23 05:15 NW 22 10.00 Fair and Breezy CLR 44.6 32 61% 37 30.78 0.0
23 04:55 W 20 10.00 Fair CLR 44.6 33.8 66% 37 30.78 0.0
23 04:35 NW 20 10.00 Fair CLR 44.6 33.8 66% 37 30.77 0.0
23 04:15 W 22 10.00 Fair and Breezy CLR 44.6 33.8 66% 37 30.78 0.0
23 03:55 W 20 10.00 Fair CLR 44.6 33.8 66% 37 30.78 0.0
23 03:35 W 22 10.00 Fair and Breezy CLR 44.6 33.8 66% 37 30.78 0.0
23 03:15 W 23 10.00 Fair and Breezy CLR 44.6 33.8 66% 37 30.78 0.0
23 02:55 W 23 10.00 Fair and Breezy CLR 44.6 33.8 66% 37 30.78 0.0
23 02:35 W 24 10.00 Fair and Breezy CLR 44.6 33.8 66% 36 30.78 0.0
23 02:15 W 21 10.00 Fair and Breezy CLR 44.6 33.8 66% 37 30.79 0.0
23 01:55 W 21 10.00 Fair and Breezy CLR 44.6 33.8 66% 37 30.8 0.0
23 01:35 W 18 10.00 Fair CLR 44.6 33.8 66% 37 30.8 0.0
23 01:15 W 18 10.00 Fair CLR 44.6 33.8 66% 37 30.81 0.0
23 00:55 W 17 10.00 Fair CLR 44.6 33.8 66% 38 30.81 0.0
23 00:35 W 16 10.00 Fair CLR 44.6 33.8 66% 38 30.82 0.0
23 00:15 W 14 10.00 Fair CLR 44.6 33.8 66% 39 30.82 0.0
22 23:55 W 15 10.00 Fair CLR 44.6 33.8 66% 38 30.82 0.0
22 23:35 W 16 10.00 Fair CLR 44.6 33.8 66% 38 30.82 0.0
22 23:15 W 16 10.00 Fair CLR 44.6 33.8 66% 38 30.82 0.0
22 22:55 W 13 10.00 Fair CLR 46.4 32 57% 41 30.83 0.0
22 22:35 W 15 10.00 Fair CLR 46.4 32 57% 41 30.83 0.0
22 22:15 W 16 10.00 Fair CLR 46.4 32 57% 40 30.83 0.0
22 21:55 W 14 10.00 Fair CLR 46.4 33.8 62% 41 30.82 0.0
22 21:35 NW 10 10.00 Fair CLR 46.4 33.8 62% 42 30.82 0.0
22 21:15 W 21 10.00 Fair and Breezy CLR 46.4 33.8 62% 39 30.81 0.0
22 20:55 W 14 G 20 10.00 Fair CLR 48.2 32 54% 43 30.81 0.0
22 20:35 W 15 G 20 10.00 Fair CLR 48.2 32 54% 43 30.81 0.0
22 20:15 W 17 G 26 10.00 Fair CLR 50 32 50% 45 30.8 0.0
22 19:55 NW 30 G 35 10.00 Fair and Windy CLR 51.8 32 47% 30.79 0.0
22 19:35 W 30 G 35 10.00 Partly Cloudy and Windy SCT060 SCT090 51.8 32 47% 30.78 0.0
22 19:15 W 20 G 30 10.00 Overcast SCT040 BKN060 OVC090 51.8 37.4 58% 30.79 0.0
22 18:55 SW 18 10.00 Overcast SCT040 BKN050 OVC120 51.8 37.4 58% 30.79 0.0
22 18:35 SW 24 G 31 10.00 Partly Cloudy and Breezy SCT050 SCT120 53.6 37.4 54% 30.78 0.0
22 18:15 NW 15 10.00 Fair CLR 57.2 33.8 41% 30.78 0.0
22 17:55 NW 21 10.00 Mostly Cloudy and Breezy SCT055 SCT070 BKN095 57.2 32 39% 30.77 0.0
22 17:35 W 17 G 35 10.00 Mostly Cloudy SCT055 BKN095 BKN120 57.2 33.8 41% 30.77 0.0
22 17:15 W 25 G 37 10.00 Mostly Cloudy and Breezy SCT065 SCT075 BKN095 60.8 32 34% 30.77 0.0
22 16:55 W 17 G 36 10.00 Partly Cloudy SCT065 SCT085 59 30.2 34% 30.77 0.0
22 16:35 W 22 G 31 10.00 Fair and Breezy CLR 60.8 30.2 31% 30.77 0.0
22 16:15 W 17 G 37 10.00 Fair CLR 60.8 30.2 31% 30.77 0.0
22 15:55 W 16 G 30 10.00 Fair CLR 60.8 30.2 31% 30.77 0.0
22 15:35 W 17 G 33 10.00 Fair CLR 59 28.4 31% 30.78 0.0
22 15:15 W 24 G 31 10.00 Fair and Breezy CLR 60.8 30.2 31% 30.78 0.0
22 14:55 W 17 G 29 10.00 Fair CLR 59 32 36% 30.79 0.0
22 14:35 W 24 G 32 10.00 Fair and Breezy CLR 59 30.2 34% 30.79 0.0
22 14:15 NW 22 G 35 10.00 Fair and Breezy CLR 59 30.2 34% 30.8 0.0
22 13:55 NW 17 G 25 10.00 Fair CLR 59 32 36% 30.8 0.0
22 13:35 NW 16 G 26 10.00 Fair CLR 57.2 28.4 33% 30.8 0.0
22 13:15 NW 16 G 24 10.00 Fair CLR 55.4 32 41% 30.81 0.0
22 12:55 W 15 G 24 10.00 Fair CLR 55.4 35.6 47% 30.81 0.0
22 12:35 W 14 G 26 10.00 Fair CLR 53.6 33.8 47% 30.81 0.0
22 12:15 NW 17 G 23 10.00 Fair CLR 53.6 37.4 54% 30.81 0.0
22 11:55 W 16 G 23 10.00 Fair CLR 51.8 41 67% 30.81 0.0
22 11:35 W 18 G 22 10.00 Fair CLR 51.8 41 67% 30.81 0.0
22 11:15 W 17 G 24 10.00 Fair CLR 51.8 39.2 62% 30.8 0.0
22 10:55 W 16 G 22 10.00 Fair CLR 50 41 71% 45 30.8 0.0
22 10:35 W 17 G 23 10.00 Fair CLR 50 41 71% 45 30.8 0.0
22 10:15 W 15 G 22 10.00 Fair CLR 48.2 39.2 71% 43 30.79 0.0
22 09:55 W 16 10.00 Fair CLR 46.4 37.4 71% 40 30.78 0.0
22 09:35 W 15 10.00 Fair CLR 46.4 37.4 71% 41 30.78 0.0
22 09:15 W 18 G 22 10.00 Fair CLR 44.6 35.6 71% 37 30.77 0.0
22 08:55 W 18 10.00 Fair CLR 44.6 37.4 76% 37 30.77 0.0
22 08:35 W 18 10.00 Fair CLR 42.8 37.4 81% 35 30.76 0.0
22 08:15 W 18 10.00 Fair CLR 42.8 37.4 81% 35 30.76 0.0
22 07:56 W 23 10.00 Fair and Breezy CLR 41 37.4 87% 32 30.75 0.0
22 07:35 W 20 10.00 Fair CLR 41 39.2 93% 33 30.74 0.0
22 07:15 W 24 10.00 Fair and Breezy CLR 41 37.4 87% 32 30.74 0.0
22 06:55 W 23 10.00 Fair and Breezy CLR 41 37.4 87% 32 30.74 0.0
22 06:35 W 23 10.00 Fair and Breezy CLR 39.2 39.2 100% 29 30.73 0.0
22 06:15 W 22 10.00 Fair and Breezy CLR 39.2 37.4 93% 30 30.72 0.0
22 05:55 W 22 0.25 Fog and Breezy VV002 39.2 37.4 93% 30 30.72 0.0
22 05:35 W 23 0.15 Fog and Breezy VV000 39.2 37.4 93% 29 30.71 0.0
22 05:15 W 22 0.50 Fog and Breezy VV005 39.2 37.4 93% 30 30.71 0.0
22 04:55 W 22 0.25 Unknown Precip and Breezy VV002 37.4 37.4 100% 27 30.7 0.0
22 04:35 W 22 1.00 Fog/Mist and Breezy VV007 39.2 37.4 93% 30 30.71 0.0
22 04:15 W 22 0.50 Fog and Breezy VV005 39.2 37.4 93% 30 30.7 0.0
22 03:55 W 22 0.25 Fog and Breezy OVC001 39.2 37.4 93% 30 30.7 0.0
22 03:35 W 23 0.15 Fog and Breezy OVC001 39.2 37.4 93% 29 30.7 0.0
22 03:15 SW 22 0.25 Fog and Breezy VV002 39.2 37.4 93% 30 30.71 0.0
22 02:55 SW 21 10.00 Fair and Breezy CLR 39.2 37.4 93% 30 30.71 0.0
22 02:35 SW 23 10.00 Fair and Breezy CLR 39.2 39.2 100% 29 30.71 0.0
22 02:15 SW 22 10.00 Fair and Breezy CLR 39.2 39.2 100% 30 30.71 0.0
22 01:55 SW 22 3.00 Fog/Mist and Breezy CLR 39.2 39.2 100% 30 30.71 0.0
22 01:35 SW 23 0.50 Fog and Breezy VV005 39.2 39.2 100% 29 30.71 0.0
22 01:15 W 23 0.50 Fog and Breezy VV005 39.2 39.2 100% 29 30.71 0.0
22 00:55 W 23 0.25 Fog and Breezy BKN001 BKN080 39.2 37.4 93% 29 30.72 0.0
22 00:35 W 18 0.15 Fog BKN001 39.2 39.2 100% 31 30.72 0.0
22 00:15 NW 15 10.00 Partly Cloudy SCT100 39.2 39.2 100% 31 30.73 0.0
21 23:55 NW 17 4.00 Fog/Mist BKN016 OVC100 39.2 39.2 100% 31 30.73 0.0
21 23:35 NW 20 0.50 Light Rain BKN001 BKN009 OVC018 41 39.2 93% 33 30.73 0.0
21 23:15 W 22 G 28 0.15 Fog and Breezy OVC001 41 39.2 93% 32 30.73 0.0
21 22:55 W 31 0.15 Light Rain and Windy OVC001 41 39.2 93% 30 30.71 0.0
21 22:35 W 28 0.15 Light Rain and Windy OVC001 41 39.2 93% 31 30.71 0.0
21 22:15 W 23 G 29 0.15 Fog and Breezy OVC001 41 41 100% 32 30.7 0.0
21 21:55 W 21 10.00 Light Drizzle and Breezy SCT001 SCT005 41 39.2 93% 32 30.69 0.0
21 21:35 W 13 G 22 0.15 Fog OVC001 41 41 100% 34 30.69 0.0
21 21:15 NW 37 G 40 0.15 Fog and Windy OVC001 41 41 100% 29 30.69 0.0
21 20:55 W 45 G 52 0.15 Light Rain and Windy OVC001 41 41 100% 28 30.67 0.0
21 20:35 NW 47 G 61 0.15 Light Rain and Windy OVC001 42.8 42.8 100% 31 30.68 0.0
21 20:15 W 45 G 59 2.00 Rain and Windy BKN003 BKN020 OVC028 44.6 42.8 93% 33 30.67 0.0
21 19:55 W 24 10.00 Light Rain and Breezy SCT028 BKN034 OVC075 44.6 44.6 100% 36 30.69 0.0
Date Time (mdt) Wind (mph) Vis. (mi.) Weather Sky Cond. Air Dwpt Max. Min. Relative Humidity Wind Chill (°F) Heat Index (°F) altimeter (in) sea level (mb) 1 hr 3 hr 6 hr
6 hour
Temperature (ºF) Pressure Precipitation (in)